STARLINK-35683, 66405

Orbit data source: Space-Track

STARLINK-35683, 66405 is a payload satellite owned by SpaceX/Seattle (US) in LEO that was launched on Sat, 08 Nov 2025 UTC via an FALCON 9 launch vehicle from the Air Force Eastern Test Range (AFETR). Payload-class satellites include a variety of spacecraft equipped with specific instruments for various scientific and technological missions. These include communications satellites like Starlink; space stations such as the ISS; scientific satellites like the Hubble; Earth observation satellites from companies like Planet Labs, Umbra, and HawkEye 360; GPS; miniature CubeSats for education and research; and military/defense satellites.

Loading next visibility...
Identifier
66405, 2025-257AB
Orbit
LEO
Country
Flag of USUS
Related business
Manufacturer
SpaceX/Seattle
Mission
Operational Commercial Communications
Bus & Motor
STARLINK V2MO, Unknown motor
Mass
575 kg wet, ~530 kg dry
Launch date (UTC)
2025-11-08 (7 months ago)
Launch vehicle
FALCON 9
Launch site
Air Force Eastern Test Range (AFETR)
Object type
Payload
Rocket body
Debris
Shape & HBR
Box + 2 Pan, 17.7 m
Radar Cross Section
36.964 m², Large (>1 m²)

Expand to show TLE details & history
Last TLE update: 21 hours ago

TLE from 21 hours ago
0 STARLINK-35683
1 66405U 25257AB  26170.97436210  .00012195  00000-0  37158-3 0  9995
2 66405  53.1589 100.5068 0001302  96.9926 263.1225 15.34390212 35347
Epoch: 2026-06-19T23:23Z
TLE epoch observation values (Epoch: 2026-06-19T23:23:04.885Z)
Latitude
0.00001°
Longitude
-158.45919°
Altitude
463.74 km
Speed
7.636 km/s
True Right ascension
06h 42m 01s
True Declination
0° 00' 00"
Sunlit
Object was in daylight at epoch
Visualization orbit readout
Latitude
Unknown
Longitude
Unknown
Altitude
Unknown
Speed
Unknown
Apparent Right ascension
Unknown
Apparent Declination
Unknown
Sunlit
N/A
Visualization observer readout
Local Sidereal Time
07:16:52
Azimuth
Unknown
Elevation
Unknown
Doppler factor
Unknown
Orbital elements
Apogee altitude
463.88 km
Perigee altitude
462.099 km
Semi-major axis
6,841.126 km
Eccentricity
0.00013
Inclination
53.1589°
RAAN
100.5068°
Arg. of periapsis
96.9926°
True anomaly
263.10769°
Mean anomaly
263.1225°
Eccentric anomaly
263.11509°
Mean motion
3.83576 °/min
Orbital period
93.85 mins
BSTAR
0.00037158
Loading maneuver chart data...
Computing Atmospheric mass density...
Loading historical data...
Loading historical data...
Loading historical data...
Loading historical data...
Loading historical data...
Loading historical data...
Loading historical data...

Documentation

Showing up to 5 results
|